sat.trackr.live / text

‹ back to catalog

STARLINK-31863

NORAD 59789 · 2024-093H

PAYLOAD ACTIVE UNKNOWN

§ Identity

Operator
Country
US
Launch date
2024-05-18
Launch site
AFETR
Launch vehicle
Mass (kg)
RCS (m²)

Purposes: comms

External: N2YO · Heavens-Above · Gunter

§ Orbital elements

Epoch: 2026-09-21T11:44:07.743264Z

Period
94.27 min
Inclination
43.0012°
Eccentricity
0.0001177
Mean motion
15.27576455 rev/d
Perigee alt
482.3 km
Apogee alt
483.9 km
Semi-major
6,861.2 km
B*
-7.3742e-5
RAAN
182.8473°
Arg perigee
260.9473°
Mean anomaly
99.1246°
Rev number
13,264

§ Raw data

STARLINK-318631 59789U 24093H   26264.48897851 -.00002290  00000+0 -73742-4 0  99972 59789  43.0012 182.8473 0001177 260.9473  99.1246 15.27576455132644

JSON: /api/v1/satellites/59789 · /tle

For live sub-satellite position, see the globe view (requires WebGL).

§ Visibility from observer

Set your observer location to see the next 7 days of passes ≥ 10°. The values pass through the URL so the page stays shareable.

No JS? Fill the form by hand. The geolocation button needs JavaScript.